This demonstration page uses our WeatherBlox Daily Observations layout. Learn more.

Left ArrowRight Arrow

30.21309, -93.2044

Hourly Observations for April 22, 2022

Temp ( °F °C ) Dew Point ( °F °C ) Humidity (%) Winds ( mph kmh ) Pressure ( in mb ) Visibility ( mi km ) Precip ( " mm )
12:15 am 00:15 Clear 67 19.2 64 17.9 92 92 Calm 30.23 1024 10 16 0.00 0.00
12:35 am 00:35 Clear 65 18.5 63 17.4 93 93 SE 6 9 30.23 1024 10 16 0.00 0.00
12:55 am 00:55 Clear 66 19 64 17.8 93 93 SE 5 7 30.23 1024 10 16 0.00 0.00
1:15 am 01:15 Clear 66 19 64 18 94 94 E 3 6 30.23 1024 10 16 0.00 0.00
1:35 am 01:35 Clear 67 19.2 65 18.3 95 95 E 3 6 30.23 1024 10 16 0.00 0.00
1:55 am 01:55 Clear 66 19 64 18 94 94 E 5 7 30.22 1023 10 16 0.00 0.00
2:15 am 02:15 Clear with Mist and Fog 65 18.3 63 17.4 95 95 E 5 7 30.22 1023 7 11 0.00 0.00
2:35 am 02:35 Partly Cloudy 66 18.7 64 17.9 95 95 ESE 7 11 30.22 1023 7 11 0.00 0.00
2:55 am 02:55 Partly Cloudy 67 19.6 66 18.7 95 95 ESE 8 13 30.21 1023 10 16 0.00 0.00
3:15 am 03:15 Partly Cloudy 68 20.1 66 19.1 94 94 ESE 8 13 30.21 1023 10 16 0.00 0.00
3:35 am 03:35 Mostly Cloudy 68 20.1 66 19.1 94 94 ESE 6 9 30.21 1023 7 11 0.00 0.00
3:55 am 03:55 Cloudy with Mist and Fog 68 20 66 19.1 95 95 ESE 7 11 30.21 1023 7 11 0.00 0.00
4:15 am 04:15 Cloudy 69 20.4 67 19.4 94 94 ESE 8 13 30.20 1023 7 11 0.00 0.00
4:35 am 04:35 Cloudy 69 20.5 67 19.5 94 94 ESE 8 13 30.20 1023 7 11 0.00 0.00
4:55 am 04:55 Mostly Cloudy 68 20 66 19 94 94 ESE 9 15 30.21 1023 7 11 0.00 0.00
5:15 am 05:15 Mostly Cloudy 69 20.3 67 19.2 93 93 ESE 8 13 30.21 1023 7 11 0.00 0.00
5:35 am 05:35 Mostly Cloudy 68 20.2 66 19.1 93 93 ESE 9 15 30.21 1023 7 11 0.00 0.00
6:00 am 06:00 Partly Cloudy 70 21 66 19 88 88 ESE 10 17 30.21 1023 10 16 0.00 0.00
6:50 am 06:50 Mostly Sunny 68 20 66 19 94 94 ESE 7 11 30.23 1024 10 16 0.00 0.00
7:55 am 07:55 Partly Cloudy 70 21 66 19 88 88 E 9 15 30.25 1024 10 16 0.00 0.00
8:45 am 08:45 Partly Cloudy 72 22 66 19 83 83 ESE 14 22 30.25 1024 10 16 0.00 0.00
9:46 am 09:46 Mostly Cloudy 75 24 66 19 74 74 SSE 13 20 30.26 1025 10 16 0.00 0.00
10:45 am 10:45 Partly Cloudy 79 26 64 18 61 61 SE 15 24 30.27 1025 10 16 0.00 0.00
11:50 am 11:50 Partly Cloudy 81 27 64 18 58 58 ESE 14 22 30.26 1025 10 16 0.00 0.00
12:55 pm 12:55 Partly Cloudy 81 27 63 17 54 54 SE 15 24 30.25 1024 10 16 0.00 0.00
1:52 pm 13:52 Mostly Cloudy 81 27 63 17 54 54 SE 13 20 30.23 1024 10 16 0.00 0.00
2:45 pm 14:45 Partly Cloudy 82 28 61 16 48 48 SE 16 26 30.21 1023 10 16 0.00 0.00
3:50 pm 15:50 Mostly Cloudy 84 29 61 16 45 45 SE 21 33 30.17 1022 10 16 0.00 0.00
4:50 pm 16:50 Partly Cloudy 81 27 61 16 51 51 SE 17 28 30.16 1021 10 16 0.00 0.00
5:45 pm 17:45 Partly Cloudy 81 27 63 17 54 54 SE 17 28 30.15 1021 10 16 0.00 0.00
6:53 pm 18:53 Partly Cloudy 79 26 63 17 58 58 SE 18 30 30.14 1021 10 16 0.00 0.00
7:55 pm 19:55 Mostly Clear 73 23 63 17 69 69 SSE 12 19 30.13 1020 10 16 0.00 0.00
8:50 pm 20:50 Mostly Clear 70 21 64 18 83 83 SSE 8 13 30.14 1021 10 16 0.00 0.00
9:55 pm 21:55 Mostly Clear 72 22 66 19 83 83 SE 17 28 30.14 1021 10 16 0.00 0.00
10:15 pm 22:15 Clear 71 21.9 67 19.2 85 85 SE 14 22 30.14 1021 10 16 0.00 0.00
10:35 pm 22:35 Clear 72 22 67 19.2 84 84 SE 14 22 30.14 1021 10 16 0.00 0.00
10:55 pm 22:55 Clear 71 21.8 67 19.2 85 85 SE 14 22 30.14 1021 10 16 0.00 0.00
11:15 pm 23:15 Clear 71 21.8 67 19.2 85 85 SE 13 20 30.14 1021 10 16 0.00 0.00
11:35 pm 23:35 Partly Cloudy 71 21.5 66 19 86 86 SSE 15 24 30.14 1021 10 16 0.00 0.00
11:55 pm 23:55 Partly Cloudy 71 21.6 66 18.9 85 85 SE 16 26 30.13 1020 10 16 0.00 0.00

Powered by AerisWeather